TimeEST,TemperatureF,Dew PointF,Humidity,Sea Level PressureIn,VisibilityMPH,Wind Direction,Wind SpeedMPH,Gust SpeedMPH,PrecipitationIn,Events,Conditions,WindDirDegrees,DateUTC
12:15 AM,24.8,19.4,80,29.70,7.0,West,33.4,43.7,N/A,,Overcast,280,2012-02-25 05:15:00
12:35 AM,24.8,21.2,86,29.70,10.0,West,25.3,36.8,N/A,,Overcast,270,2012-02-25 05:35:00
12:55 AM,24.8,21.2,86,29.70,10.0,West,24.2,36.8,N/A,Snow,Light Snow,270,2012-02-25 05:55:00
1:35 AM,24.8,19.4,80,29.70,10.0,WNW,17.3,33.4,N/A,,Overcast,300,2012-02-25 06:35:00
1:55 AM,24.8,19.4,80,29.71,10.0,WNW,17.3,36.8,N/A,,Overcast,290,2012-02-25 06:55:00
2:15 AM,24.8,21.2,86,29.70,7.0,West,25.3,34.5,N/A,Snow,Light Snow,280,2012-02-25 07:15:00
2:35 AM,24.8,21.2,86,29.70,1.0,West,32.2,43.7,N/A,Snow,Light Snow,270,2012-02-25 07:35:00
2:55 AM,23.0,23.0,100,29.71,1.0,West,23.0,34.5,N/A,Snow,Light Snow,270,2012-02-25 07:55:00
3:18 AM,23.0,17.6,80,29.70,10.0,West,33.4,44.9,N/A,,Mostly Cloudy,280,2012-02-25 08:18:00
3:35 AM,23.0,15.8,74,29.71,10.0,West,26.5,41.4,N/A,,Mostly Cloudy,280,2012-02-25 08:35:00
3:55 AM,23.0,15.8,74,29.71,10.0,West,28.8,42.6,N/A,,Overcast,280,2012-02-25 08:55:00
4:15 AM,23.0,15.8,74,29.72,10.0,West,24.2,39.1,N/A,,Overcast,270,2012-02-25 09:15:00
4:55 AM,23.0,14.0,68,29.73,10.0,West,24.2,36.8,N/A,,Overcast,270,2012-02-25 09:55:00
5:17 AM,23.0,12.2,63,29.72,10.0,West,27.6,38.0,N/A,,Overcast,270,2012-02-25 10:17:00
5:35 AM,23.0,14.0,68,29.73,10.0,West,26.5,38.0,N/A,,Overcast,280,2012-02-25 10:35:00
5:55 AM,21.2,17.6,86,29.73,2.5,West,23.0,36.8,N/A,Snow,Light Snow,270,2012-02-25 10:55:00
6:15 AM,19.4,17.6,93,29.73,1.0,WNW,29.9,39.1,N/A,Snow,Light Snow,290,2012-02-25 11:15:00
6:37 AM,21.2,15.8,80,29.73,10.0,West,33.4,50.6,N/A,,Overcast,280,2012-02-25 11:37:00
6:56 AM,21.2,14.0,74,29.76,10.0,West,27.6,43.7,N/A,,Overcast,280,2012-02-25 11:56:00
7:15 AM,21.2,14.0,74,29.77,10.0,West,25.3,39.1,N/A,,Overcast,280,2012-02-25 12:15:00
7:35 AM,19.4,15.8,86,29.79,4.0,West,26.5,40.3,N/A,Snow,Light Snow,270,2012-02-25 12:35:00
7:55 AM,19.4,17.6,93,29.79,0.2,West,21.9,31.1,N/A,Snow,Light Snow,270,2012-02-25 12:55:00
8:15 AM,19.4,17.6,93,29.81,0.2,West,20.7,36.8,N/A,Snow,Heavy Snow,280,2012-02-25 13:15:00
8:35 AM,19.4,19.4,100,29.82,0.2,West,20.7,25.3,N/A,Snow,Heavy Snow,280,2012-02-25 13:35:00
8:57 AM,19.4,17.6,93,29.81,3.0,West,26.5,38.0,N/A,Snow,Light Snow,280,2012-02-25 13:57:00
9:15 AM,21.2,15.8,80,29.81,2.0,West,25.3,35.7,N/A,Snow,Light Snow,270,2012-02-25 14:15:00
9:35 AM,21.2,12.2,68,29.81,5.0,West,27.6,43.7,N/A,,Haze,280,2012-02-25 14:35:00
9:55 AM,21.2,12.2,68,29.81,7.0,WNW,32.2,42.6,N/A,,Overcast,290,2012-02-25 14:55:00
10:15 AM,21.2,12.2,68,29.83,7.0,WNW,27.6,42.6,N/A,,Overcast,290,2012-02-25 15:15:00
10:35 AM,21.2,12.2,68,29.83,2.5,West,33.4,46.0,N/A,,Overcast,280,2012-02-25 15:35:00
10:55 AM,23.0,12.2,63,29.83,10.0,West,28.8,47.2,N/A,,Overcast,280,2012-02-25 15:55:00
11:15 AM,21.2,12.2,68,29.84,10.0,West,28.8,42.6,N/A,,Overcast,280,2012-02-25 16:15:00
11:35 AM,23.0,12.2,63,29.85,10.0,West,24.2,43.7,N/A,,Overcast,270,2012-02-25 16:35:00
11:55 AM,24.8,12.2,59,29.85,10.0,West,31.1,44.9,N/A,,Mostly Cloudy,270,2012-02-25 16:55:00
12:15 PM,24.8,10.4,54,29.86,10.0,West,32.2,42.6,N/A,,Overcast,270,2012-02-25 17:15:00
12:55 PM,24.8,10.4,54,29.85,10.0,West,27.6,38.0,N/A,,Mostly Cloudy,270,2012-02-25 17:55:00
1:35 PM,24.8,10.4,54,29.84,10.0,West,27.6,40.3,N/A,,Overcast,280,2012-02-25 18:35:00
1:55 PM,24.8,10.4,54,29.87,10.0,WNW,21.9,36.8,N/A,,Overcast,290,2012-02-25 18:55:00
2:15 PM,24.8,10.4,54,29.87,10.0,WNW,15.0,33.4,N/A,,Unknown,300,2012-02-25 19:15:00
2:35 PM,24.8,8.6,50,29.89,10.0,West,26.5,40.3,N/A,,Overcast,280,2012-02-25 19:35:00
2:55 PM,23.0,8.6,54,29.90,10.0,WNW,19.6,40.3,N/A,,Overcast,290,2012-02-25 19:55:00
3:35 PM,21.2,10.4,63,29.95,10.0,WNW,18.4,39.1,N/A,,Mostly Cloudy,290,2012-02-25 20:35:00
3:55 PM,21.2,8.6,58,29.97,10.0,WNW,18.4,41.4,N/A,,Overcast,290,2012-02-25 20:55:00
4:15 PM,21.2,10.4,63,29.97,10.0,West,20.7,33.4,N/A,,Overcast,280,2012-02-25 21:15:00
4:35 PM,23.0,8.6,54,29.98,10.0,West,20.7,31.1,N/A,,Overcast,280,2012-02-25 21:35:00
4:55 PM,21.2,10.4,63,29.99,10.0,West,16.1,27.6,N/A,,Overcast,270,2012-02-25 21:55:00
5:15 PM,21.2,10.4,63,30.00,10.0,West,25.3,38.0,N/A,,Overcast,280,2012-02-25 22:15:00
5:35 PM,21.2,10.4,63,30.01,10.0,West,18.4,29.9,N/A,,Overcast,280,2012-02-25 22:35:00
6:15 PM,19.4,10.4,68,30.04,10.0,WNW,18.4,27.6,N/A,,Overcast,290,2012-02-25 23:15:00
6:35 PM,19.4,8.6,63,30.04,10.0,West,25.3,38.0,N/A,,Overcast,280,2012-02-25 23:35:00
6:55 PM,19.4,10.4,68,30.06,10.0,WNW,21.9,35.7,N/A,,Overcast,290,2012-02-25 23:55:00
7:15 PM,19.4,10.4,68,30.06,10.0,WNW,18.4,32.2,N/A,,Mostly Cloudy,290,2012-02-26 00:15:00
7:35 PM,19.4,8.6,63,30.06,10.0,WNW,18.4,28.8,N/A,,Scattered Clouds,300,2012-02-26 00:35:00
8:16 PM,19.4,10.4,68,30.11,10.0,WNW,20.7,36.8,N/A,,Mostly Cloudy,290,2012-02-26 01:16:00
8:35 PM,19.4,10.4,68,30.12,10.0,West,17.3,24.2,N/A,,Mostly Cloudy,280,2012-02-26 01:35:00
8:58 PM,19.4,10.4,68,30.12,10.0,WNW,21.9,29.9,N/A,,Scattered Clouds,300,2012-02-26 01:58:00
9:16 PM,19.4,10.4,68,30.14,10.0,WNW,26.5,35.7,N/A,,Scattered Clouds,290,2012-02-26 02:16:00
9:55 PM,19.4,10.4,68,30.15,10.0,WNW,23.0,31.1,N/A,,Clear,290,2012-02-26 02:55:00
10:16 PM,19.4,10.4,68,30.16,10.0,WNW,20.7,29.9,N/A,,Clear,290,2012-02-26 03:16:00
10:37 PM,19.4,10.4,68,30.17,10.0,WNW,25.3,33.4,N/A,,Clear,290,2012-02-26 03:37:00
10:55 PM,19.4,10.4,68,30.16,10.0,WNW,23.0,32.2,N/A,,Clear,290,2012-02-26 03:55:00
11:15 PM,17.6,10.4,73,30.17,10.0,WNW,20.7,33.4,N/A,,Clear,290,2012-02-26 04:15:00
11:35 PM,17.6,10.4,73,30.17,10.0,WNW,18.4,27.6,N/A,,Clear,300,2012-02-26 04:35:00
11:55 PM,17.6,10.4,73,30.18,10.0,WNW,13.8,32.2,N/A,,Clear,300,2012-02-26 04:55:00